Notices

What's New in latest Release from April 7th, 2021:

- Updated Glossary, including Speed of Maximum Gust, and Total Hourly Precipitation

- Updated national and regional climate services offices contacts and prices information

- Addition of station inventory lists for 1981-2010, 1971-2000, and 1961-1990 Normals.

If you haven't already, please take our survey and provide feedback about our website: https://eccc.sondage-survey.ca/f/LanguageSelection.aspx?s=442ca660-fcf1-47c0-95a9-59707d6fd709

Hourly Data Report for April 26, 2017

KUGAARUK CLIMATE
NUNAVUT

68°32'15.060" N
89°47'47.020" W
15.80 m
2303094
71407
NBB

Download Data

Hourly Data (April 2017)
Hourly Data Report for April 26, 2017
TIME
LST
Temp Definition
°C
Dew Point Definition
°C
Rel Hum Definition
%
Precip. Amount Definition
mm

Wind Dir Definition
10's deg

Wind Spd Definition
km/h
Visibility Definition
km
Stn Press Definition
kPa
Hmdx Definition


Wind Chill Definition


Weather Definition


00:00 -27.4 -30.6 75 0.0 4 4   101.61   -32 LegendNANA
01:00 -29.0 -32.2 73 0.0 5 6   101.55   -35 LegendNANA
02:00 -29.0 -32.2 74 0.0 7 5   101.51   -34 LegendNANA
03:00 -28.9 -32.7 70 0.2 8 6   101.45   -35 LegendNANA
04:00 -28.6 -32.8 67 0.0 10 9   101.38   -37 LegendNANA
05:00 -27.6 -32.2 65 0.0 12 7   101.35   -34 LegendNANA
06:00 -26.6 -32.1 60 0.0 9 5   101.30   -32 LegendNANA
07:00 -25.0 -30.6 60 0.0 7 6   101.27   -31 LegendNANA
08:00 -23.5 -28.9 61 0.0 5 9   101.22   -31 LegendNANA
09:00 -20.8 -26.4 61 0.0 1 11   101.16   -29 LegendNANA
10:00 -18.3 -25.9 51 0.0 13 3   101.14   -21 LegendNANA
11:00 -17.1 -25.2 50 0.0 8 3   101.11   -19 LegendNANA
12:00 -16.5 -22.8 58 0.0 13 12   101.09   -24 LegendNANA
13:00 -16.8 -22.0 64 0.0 13 16   101.04   -25 LegendNANA
14:00 -16.6 -21.8 64 0.0 15 18   101.04   -26 LegendNANA
15:00 -16.0 -21.9 61 0.0 15 12   101.03   -23 LegendNANA
16:00 -16.9 -21.4 68 0.0 15 21   101.04   -27 LegendNANA
17:00 -17.1 -21.6 68 0.0 9 10   101.04   -24 LegendNANA
18:00 -17.9 -21.3 74 0.0 7 12   101.07   -25 LegendNANA
19:00 -20.1 -23.3 76 0.0 6 15   101.10   -29 LegendNANA
20:00 -22.2 -24.7 81 0.0 3 9   101.10   -29 LegendNANA
21:00 -23.3 -25.7 80 0.0 7 8   101.10   -30 LegendNANA
22:00 -23.1 -25.4 82 0.0 9 7   101.10   -29 LegendNANA
23:00 -25.3 -28.0 78 0.0 6 5   101.13   -30 LegendNANA

Notes on Data Quality.

Legend

  • E = Estimated
  • M = Missing
  • NA = Not Available*
  • [empty] = Indicates an unobserved value
Date modified: